Wind_Speed
15 18 20 21 22 23 24 26 28 29 30 31 31 31 30 29 29 30 30 30 30 30 29 28 29 30 31 33 34 35 36 37 37 37 37 37 36 36 35 34 34 34 34 35 36 37 37 38 37 37 37 37 38 39 41 42 43 44 45 45 46 46 47 49 50 50 51 52 52 53 53 53 54 54 55 56 57 58 59 60 61 62 62 63 63
16 17 19 20 21 22 23 25 26 28 30 31 32 32 32 31 30 30 31 31 31 31 31 31 31 32 32 33 34 35 36 36 36 37 36 36 35 34 33 32 32 32 33 33 34 35 36 37 38 39 39 40 41 41 42 43 43 44 45 46 46 47 48 50 51 51 52 53 53 53 53 54 54 55 56 58 59 59 60 61 62 63 64 65 65
18 18 18 19 20 21 22 24 25 27 29 30 31 32 33 33 33 33 33 34 34 35 35 34 34 34 35 35 36 37 37 36 35 35 34 34 34 32 31 31 32 33 34 34 35 36 37 37 38 39 40 41 43 44 45 46 46 47 47 48 48 49 49 51 52 52 53 54 54 54 54 54 55 56 57 58 59 60 61 62 63 64 65 66 66
21 20 19 20 20 20 21 22 24 25 28 29 30 31 32 32 33 34 34 34 35 35 35 35 34 35 35 35 36 37 38 38 37 36 34 34 34 34 35 35 36 36 36 36 36 36 37 38 38 39 39 41 42 44 45 47 48 48 49 49 50 50 51 52 53 54 55 55 56 56 56 56 57 58 59 60 60 61 62 63 65 66 67 68 68
23 22 21 21 22 22 21 22 23 24 26 28 29 30 30 31 32 33 33 34 34 35 35 35 35 35 35 35 35 36 37 38 38 38 37 36 36 37 39 39 39 38 38 37 37 37 38 38 39 40 40 41 42 43 44 45 46 47 48 49 49 50 51 52 53 54 55 56 57 58 58 59 59 61 62 63 63 64 65 66 68 69 70 71 71
24 23 22 23 23 24 23 24 24 24 26 27 29 30 31 32 33 33 34 34 35 35 36 35 36 36 36 36 36 37 37 37 37 38 38 39 39 39 40 41 40 40 39 39 39 39 39 39 40 40 41 42 43 43 43 44 45 47 48 50 50 51 51 51 52 52 53 54 55 56 57 58 58 59 62 63 64 65 67 68 70 71 73 73 74
25 25 24 24 25 25 26 26 26 27 28 28 30 31 31 32 34 35 35 36 36 37 37 37 36 36 37 37 37 37 38 38 38 39 39 40 40 40 41 41 41 41 41 42 42 41 40 40 41 42 43 44 44 45 45 45 45 47 48 49 50 51 51 51 51 52 52 53 54 55 56 57 58 59 61 63 64 65 67 69 70 71 72 73 74
23 26 27 28 28 28 28 29 29 29 29 30 31 33 34 34 35 36 36 37 38 38 38 38 37 37 38 38 38 38 39 39 40 40 40 41 41 41 41 42 43 44 44 44 42 41 41 42 42 43 44 45 46 46 47 47 48 48 49 50 50 51 52 52 53 54 54 55 56 58 58 59 60 61 62 63 65 66 68 70 71 72 73 74 74
16 21 25 27 29 30 31 31 31 31 31 31 32 33 35 36 37 38 38 39 40 40 39 39 39 39 40 40 40 40 41 41 41 41 42 42 43 43 43 45 46 46 45 43 42 42 42 42 43 44 45 46 47 48 49 49 50 51 51 52 53 54 54 55 56 56 57 58 59 60 61 62 63 64 64 65 66 68 70 71 72 73 74 75 76
4 9 15 20 24 27 29 31 32 33 33 33 33 34 35 36 38 38 39 40 41 41 40 41 42 42 42 42 42 43 43 43 44 44 44 45 45 46 46 46 46 45 44 42 41 42 42 43 43 44 44 45 46 47 49 50 51 51 52 53 54 55 56 56 57 58 59 60 61 62 63 64 66 66 67 67 67 67 70 71 71 72 74 74 75
8 5 3 7 13 18 22 26 29 31 33 34 35 35 36 37 39 41 41 43 44 43 43 44 44 44 44 44 45 45 46 46 46 46 47 47 47 46 45 44 43 43 43 41 41 41 41 42 43 43 44 45 46 47 49 50 51 51 52 53 54 55 56 57 59 60 61 62 63 64 65 66 67 68 68 68 67 68 71 72 73 73 73 74 76
11 9 7 5 3 5 9 14 18 23 27 30 32 34 35 36 38 40 42 43 45 45 46 46 46 46 46 46 47 47 47 47 47 47 47 46 45 44 42 42 42 42 41 40 40 40 40 41 42 43 44 46 47 49 50 51 52 53 54 55 56 57 58 59 60 61 62 63 64 65 66 67 68 68 68 68 68 69 70 71 72 72 72 72 73
12 10 9 7 6 5 3 2 5 9 14 19 22 26 28 30 32 35 38 40 41 42 43 44 44 44 44 45 45 45 45 45 44 44 43 42 41 41 41 41 41 40 40 39 39 39 40 42 43 45 46 48 50 51 52 53 54 55 56 56 57 58 59 59 60 61 62 63 64 65 66 66 66 66 66 65 65 66 67 66 67 68 68 68 69
13 11 10 9 7 6 5 3 1 2 4 8 11 14 17 20 22 25 29 31 33 35 36 37 38 38 39 40 40 40 40 40 40 40 40 40 40 40 40 39 39 38 38 38 38 40 41 42 44 46 47 48 50 51 52 53 53 54 54 55 55 56 57 59 60 61 61 62 63 63 64 64 63 63 63 63 63 63 64 64 64 64 65 65 66
14 13 11 10 9 7 5 4 2 1 2 4 6 8 9 11 13 16 19 22 24 26 28 29 31 32 33 34 35 36 36 37 38 38 38 38 37 37 37 36 36 36 36 37 38 39 40 42 43 45 46 47 48 50 51 52 53 53 54 55 55 56 57 58 58 59 59 60 61 62 62 62 62 62 62 62 62 60 59 59 59 60 61 62 62
16 14 13 12 10 9 8 6 5 3 3 3 5 6 7 8 9 11 13 16 18 20 21 23 24 26 27 28 29 30 31 32 32 33 33 33 33 33 34 34 35 36 37 38 39 40 41 42 44 46 47 48 49 50 51 52 53 53 54 54 55 55 55 56 56 57 59 60 61 61 62 61 61 60 59 58 56 53 52 52 54 56 58 58 58
20 17 15 13 12 11 9 9 8 7 6 6 6 7 7 8 8 9 10 12 14 16 18 19 21 22 23 24 24 25 26 27 27 28 29 30 31 32 33 34 35 37 38 39 40 42 43 44 46 47 48 50 51 51 52 52 52 52 53 53 53 53 53 54 56 57 58 58 58 59 59 58 56 54 52 51 50 48 47 47 48 50 52 52 52
23 21 18 16 14 13 11 11 10 9 8 8 8 8 8 9 9 9 9 10 12 14 16 17 19 21 22 23 24 25 25 26 27 29 30 31 31 32 33 34 36 37 39 40 42 43 44 45 46 47 48 49 50 50 51 51 51 51 51 51 51 52 53 54 55 55 54 54 54 53 53 52 50 48 47 47 47 44 43 44 44 44 45 46 47
24 23 21 20 18 16 14 14 13 12 11 10 10 10 10 11 11 11 11 11 11 13 14 15 17 18 19 21 23 25 26 27 29 30 31 31 32 32 33 34 35 37 38 39 40 41 42 43 44 44 45 47 47 48 48 49 49 49 50 50 50 51 52 52 51 50 49 48 48 48 48 48 47 46 45 45 45 43 42 44 44 44 44 44 44
26 24 23 22 21 20 18 16 16 15 15 14 13 12 12 12 13 13 13 13 13 13 13 14 15 16 16 17 19 21 23 25 27 28 29 30 30 30 32 32 33 35 36 36 37 38 40 41 41 42 43 44 44 44 45 45 46 47 48 48 48 47 47 45 44 44 44 44 45 46 46 46 45 44 43 42 42 41 40 41 41 41 40 40 40
27 26 26 25 24 22 21 20 19 18 17 17 17 16 15 14 14 14 15 15 15 14 14 14 15 15 14 15 16 17 20 23 24 24 25 26 26 27 28 29 30 32 33 34 36 38 40 40 41 41 42 42 42 42 43 43 43 43 43 43 42 41 40 40 40 41 42 43 44 44 44 43 42 41 40 39 38 37 36 35 35 34 34 34 34
26 26 27 27 26 25 24 23 22 21 20 18 18 18 18 18 17 16 16 16 16 16 16 16 16 15 14 14 14 16 20 21 19 19 20 21 22 24 25 27 28 30 32 34 36 37 38 39 39 39 39 39 39 39 39 39 39 38 37 37 37 37 37 38 39 41 41 42 42 42 41 40 39 38 36 34 33 31 30 29 29 29 28 29 29
27 27 27 27 27 27 27 26 25 24 22 21 19 19 19 19 20 20 19 18 17 17 17 17 17 16 15 14 15 17 19 17 15 17 20 21 23 26 27 28 30 33 36 37 36 35 35 35 35 35 35 35 36 36 35 35 34 34 33 34 35 36 37 38 39 40 40 40 40 39 38 37 35 33 31 29 28 26 25 24 24 24 24 24 25
30 28 27 27 27 27 27 27 27 26 26 24 22 20 19 19 20 21 22 21 20 19 19 18 18 17 16 17 18 19 18 14 14 18 22 24 26 29 30 31 34 38 40 39 35 33 32 32 32 32 33 33 33 33 32 32 31 31 32 32 34 35 36 37 38 39 38 38 37 36 34 33 31 28 26 25 23 22 21 20 20 20 21 21 22
34 32 29 28 28 27 27 26 27 27 27 26 26 24 22 20 19 20 21 23 23 23 22 21 19 18 17 19 21 20 18 15 16 20 23 26 29 31 32 34 37 40 41 38 34 31 31 30 30 31 31 32 31 30 29 29 29 30 30 32 33 34 35 36 36 37 36 35 33 32 30 28 26 24 22 20 19 18 18 18 18 18 18 19 19
36 35 31 30 29 28 28 27 26 26 26 26 27 27 25 24 22 21 20 21 23 24 24 24 22 20 19 22 23 20 18 18 20 22 25 28 31 33 34 36 39 41 40 36 32 30 29 29 30 30 30 30 29 28 27 27 28 29 30 30 32 33 34 35 35 34 33 31 29 28 26 24 22 20 18 17 16 16 17 17 16 16 16 16 16
37 35 32 31 30 30 30 29 28 27 26 26 27 27 27 27 26 25 23 22 23 23 24 25 26 24 23 24 24 20 18 19 21 24 27 30 33 35 35 36 39 39 37 33 31 30 29 29 29 28 28 27 27 26 26 26 27 28 29 29 30 32 33 33 32 31 29 27 26 24 22 21 19 17 15 14 15 16 16 16 16 15 14 14 13
40 38 35 33 31 30 30 30 30 29 28 27 27 27 28 28 27 27 27 26 25 24 23 24 26 28 27 27 26 23 20 20 22 25 28 31 33 34 34 35 36 35 34 32 31 30 29 28 27 27 26 26 25 25 25 26 26 27 27 28 29 31 31 30 29 27 25 24 23 21 20 18 16 14 13 13 14 15 15 14 14 13 12 11 10
44 42 39 37 34 32 31 30 30 30 29 29 27 27 28 29 28 28 29 29 28 27 25 24 25 27 29 30 28 26 24 23 23 25 27 30 30 29 29 31 32 32 33 32 31 30 29 27 26 26 25 24 24 24 24 25 26 26 26 27 28 29 28 27 26 24 22 21 20 18 17 15 13 12 12 12 12 12 12 11 10 10 9 8 7
47 45 43 40 39 37 34 32 30 30 29 29 29 27 27 29 29 28 29 30 31 30 29 27 26 26 28 30 31 30 28 27 26 26 27 29 29 28 29 30 31 32 32 32 31 30 28 27 26 25 25 24 24 24 24 25 25 24 24 26 27 27 25 24 23 21 19 18 17 16 14 13 11 10 9 9 9 8 8 7 7 7 6 5 4
49 47 45 43 42 41 39 37 34 32 31 30 29 28 28 28 29 28 28 29 30 31 32 32 30 28 27 28 30 31 31 30 29 28 27 29 30 30 30 30 30 32 32 31 30 29 28 27 26 25 25 24 24 24 24 24 23 22 23 25 25 24 23 21 19 18 17 15 14 13 12 11 9 7 5 5 5 5 5 5 5 5 4 4 2
51 50 48 46 44 43 43 41 39 37 35 32 29 29 29 29 30 28 27 28 28 30 33 34 33 32 30 29 29 31 33 33 32 30 29 30 30 29 29 30 30 31 31 30 30 29 27 26 25 25 24 24 24 24 24 23 22 21 22 24 24 22 20 18 17 16 14 13 11 11 10 8 5 2 1 1 1 2 3 4 4 4 3 2 2
53 52 51 49 47 46 45 45 43 41 39 36 33 31 29 29 30 30 29 28 27 28 30 32 33 34 33 31 30 30 32 33 33 32 31 31 30 29 28 29 30 31 31 30 29 28 27 26 25 25 24 23 23 23 23 22 21 20 21 23 22 20 18 16 15 13 12 11 9 9 8 5 2 2 2 1 1 2 3 3 3 2 2 3 5
55 55 54 53 51 49 48 48 47 44 42 39 37 34 30 28 29 30 30 30 27 26 28 32 34 35 35 35 33 29 29 31 32 33 34 32 31 30 29 29 29 30 30 29 27 27 27 26 25 25 24 23 23 22 22 22 20 19 20 21 20 18 16 14 13 11 10 9 8 7 6 4 4 4 4 3 3 4 4 4 4 5 5 6 7
56 57 58 57 56 55 52 51 50 48 45 42 40 37 33 30 31 31 30 30 28 27 30 34 36 35 34 35 36 34 32 31 31 32 33 33 32 31 31 30 29 29 30 28 26 25 26 26 26 26 25 24 23 22 21 21 20 19 19 20 19 16 14 13 11 10 9 8 7 7 6 5 5 6 5 5 6 6 6 6 7 7 7 7 7
58 60 61 61 61 60 59 57 56 53 50 46 43 40 36 33 34 35 34 33 30 28 29 32 34 34 33 33 34 35 35 34 33 32 32 32 33 32 31 30 29 29 30 29 26 24 26 27 26 26 26 25 24 23 22 21 20 19 18 18 17 15 13 11 10 9 8 7 7 7 7 6 6 7 7 8 8 9 8 8 8 8 8 7 7
60 61 63 64 64 65 65 65 63 61 57 52 47 44 40 37 36 37 38 38 36 34 33 32 31 31 32 32 32 32 33 33 33 32 32 32 32 32 31 30 30 30 30 30 27 23 24 27 26 26 26 26 25 24 22 21 20 19 18 17 16 14 12 10 8 7 6 6 7 8 7 7 8 9 9 9 9 10 10 9 9 9 8 8 8
61 63 64 65 66 67 68 69 69 67 64 59 53 47 43 39 38 38 40 41 41 39 38 37 35 33 33 34 33 33 33 31 30 31 32 30 28 28 28 28 30 30 30 31 30 25 23 24 26 26 27 26 25 24 22 20 20 19 17 16 15 13 12 9 7 6 5 5 8 8 7 8 9 10 10 9 10 9 9 9 8 8 7 7 6
62 64 66 67 68 68 69 71 72 71 68 64 58 52 46 42 40 39 40 42 44 43 42 41 40 39 38 36 35 36 36 34 34 36 33 28 26 26 27 29 31 31 31 33 33 29 25 24 24 26 27 28 26 24 22 20 19 19 18 16 14 12 11 9 7 6 5 5 7 7 7 9 10 9 9 9 9 9 8 8 7 6 5 5 5
64 65 67 68 69 70 71 72 73 73 70 66 61 56 50 46 43 41 41 42 44 45 46 44 43 42 41 39 37 38 38 36 37 39 37 31 29 29 30 32 33 32 32 34 35 33 30 27 26 26 28 29 27 24 22 20 18 18 18 16 14 11 10 9 7 7 6 6 6 7 8 9 9 8 8 8 8 8 7 6 5 5 4 3 3
67 68 70 70 71 72 74 75 75 74 72 68 64 58 53 48 45 43 42 43 44 45 47 47 46 45 43 42 41 40 40 39 39 40 39 36 35 35 34 34 35 36 36 34 34 35 33 31 29 28 29 30 28 25 23 20 18 17 17 17 15 11 9 8 7 7 7 7 7 8 8 8 7 6 6 6 7 6 5 4 3 3 2 2 3
70 71 72 73 74 75 76 77 77 76 73 69 65 60 55 51 47 44 44 44 45 46 46 47 48 48 46 45 44 43 42 42 41 41 41 39 39 39 38 37 37 38 37 36 35 34 33 32 31 30 29 30 28 27 25 22 18 17 16 16 15 13 10 8 7 7 7 7 8 9 8 7 6 6 5 5 4 3 2 1 1 1 2 2 3
73 74 75 76 77 78 79 79 79 77 74 70 65 61 57 53 49 47 45 45 46 47 48 48 49 50 50 48 47 46 45 44 44 44 44 43 42 41 40 40 38 36 36 37 37 35 33 33 33 30 29 29 29 28 27 24 20 17 16 16 15 14 12 9 7 8 7 7 8 9 8 7 6 6 5 4 3 2 1 1 2 3 3 3 4
76 77 78 79 81 82 82 82 80 77 74 70 66 62 58 54 51 48 47 47 47 48 49 50 50 51 52 52 50 49 47 47 47 47 46 45 44 43 42 42 40 36 35 37 39 37 35 34 34 32 29 28 29 30 29 27 22 18 16 16 15 14 14 12 10 9 9 8 8 9 8 8 7 6 5 5 4 4 4 3 4 4 4 4 4
79 80 81 83 84 85 86 85 83 79 74 70 66 62 58 55 53 51 49 48 48 49 50 52 52 52 53 55 54 52 50 50 50 49 49 48 46 45 45 43 42 40 38 38 39 39 37 36 36 34 31 29 29 31 31 28 24 20 18 17 15 14 14 14 13 11 11 10 10 9 9 9 9 8 7 7 7 7 6 6 6 6 5 5 4
81 82 84 85 87 88 88 87 85 81 76 72 67 63 59 56 54 52 51 50 50 51 52 53 54 54 55 56 57 56 54 53 52 51 51 51 49 48 48 46 44 43 41 39 39 40 40 39 38 36 33 31 31 32 31 28 26 23 20 18 17 15 15 15 15 14 13 13 12 12 11 11 11 10 10 9 9 8 8 7 7 7 6 6 5
84 85 86 88 89 89 89 87 84 81 77 73 69 65 61 58 55 53 52 52 52 53 53 54 55 56 56 57 59 59 58 57 55 54 54 53 52 51 50 49 48 46 43 41 41 41 42 42 41 39 37 33 33 33 32 29 27 25 23 22 20 17 16 15 15 15 16 15 15 14 13 12 12 12 11 11 10 10 10 9 8 8 7 6 6
87 88 89 90 92 92 90 88 84 80 76 73 70 67 64 60 58 55 54 54 54 54 56 56 57 57 58 59 60 61 61 61 60 58 57 56 56 55 53 53 52 50 48 46 44 43 44 44 44 44 41 36 35 36 34 30 28 26 25 25 22 18 16 16 16 16 17 16 15 15 14 14 14 14 13 12 11 11 11 11 10 9 8 7 7
89 90 91 92 92 92 90 86 82 78 75 72 69 67 65 62 60 58 56 55 55 55 57 59 59 59 60 60 61 62 63 64 63 62 61 60 59 58 57 56 55 54 53 51 48 45 45 46 47 48 45 40 37 37 36 34 30 28 28 28 24 19 18 18 19 18 17 17 15 14 14 14 14 15 14 13 12 12 12 12 11 10 9 9 9
91 92 93 94 94 92 89 84 80 76 73 70 68 67 65 63 61 59 58 57 56 56 57 59 61 62 61 62 62 62 63 64 65 65 64 62 61 61 60 59 58 58 56 54 52 50 49 48 49 50 48 44 40 38 39 37 32 28 28 29 26 22 21 21 21 20 18 17 16 15 14 14 14 13 13 13 12 12 13 12 12 11 11 11 11
95 96 97 98 97 94 89 83 79 75 72 70 68 66 64 62 61 59 58 57 56 56 56 57 59 62 63 63 63 63 63 63 65 66 66 65 64 63 62 62 62 61 60 58 57 56 54 51 51 52 50 47 43 41 41 40 35 30 29 30 28 25 24 24 23 22 20 19 18 17 16 14 13 13 13 13 13 12 12 12 12 12 12 11 10
Wind_Direction
197 198 201 205 208 206 204 203 203 204 205 206 208 210 211 212 213 217 222 226 227 227 227 229 233 238 242 245 249 251 253 255 256 257 258 257 258 258 260 262 263 265 266 267 267 267 267 266 266 266 266 265 265 265 265 265 265 265 265 264 264 264 264 265 266 266 266 266 266 266 266 267 267 266 266 265 264 264 264 264 264 265 266 267 268
205 205 203 206 210 212 212 212 212 213 215 215 216 218 220 222 224 226 228 231 234 234 235 237 239 242 245 248 251 253 254 255 256 256 257 257 257 258 260 262 264 266 268 269 269 268 268 267 267 266 266 266 266 266 265 265 265 266 266 266 266 266 266 266 266 266 267 267 267 266 266 267 267 267 267 267 265 265 265 265 265 265 266 266 267
207 211 212 211 212 214 216 218 220 222 223 223 224 225 227 229 230 232 234 236 238 239 240 242 244 246 248 250 252 253 254 254 254 254 256 257 257 258 261 266 270 272 273 273 272 270 269 268 267 266 266 265 265 264 264 264 264 264 264 264 265 265 265 266 267 267 267 267 267 267 266 266 267 267 268 268 267 267 267 267 267 267 267 267 267
209 213 219 221 220 220 220 221 224 228 231 232 232 233 234 235 236 237 238 240 241 242 244 245 247 249 250 252 254 255 255 255 255 255 257 260 261 262 267 273 277 277 276 277 275 272 270 269 268 268 267 266 266 265 264 264 263 263 263 263 262 263 263 264 265 265 266 267 267 267 267 267 268 268 268 268 268 268 268 268 267 267 267 267 266
211 215 221 227 229 229 229 228 229 231 234 236 238 238 239 241 242 243 244 245 247 248 250 251 253 254 256 257 258 258 259 259 258 258 260 264 266 269 273 277 279 278 277 278 278 275 271 268 267 267 267 267 267 267 267 266 266 265 265 264 264 264 264 264 265 265 265 266 267 267 268 268 268 269 268 268 267 267 267 267 267 267 266 266 266
216 217 221 227 231 233 235 236 237 237 238 240 241 241 242 244 246 248 249 250 252 253 254 255 257 258 260 261 261 262 262 263 262 262 264 268 270 273 276 278 278 278 278 279 279 275 271 268 266 266 266 266 266 267 267 267 267 266 266 266 266 266 266 266 266 267 267 267 267 268 268 268 268 268 269 269 268 268 268 267 267 267 267 267 267
223 223 225 229 233 235 237 240 242 243 244 245 246 245 244 245 247 249 251 253 254 255 256 257 259 260 261 262 263 263 264 265 266 267 268 270 272 274 276 277 277 277 278 279 277 273 269 268 267 267 266 265 266 266 267 267 266 265 264 264 264 265 266 267 268 269 269 270 270 270 270 270 270 269 270 270 270 270 270 269 269 269 268 268 268
227 227 229 232 236 239 241 243 244 246 247 248 250 251 251 250 251 252 253 254 255 256 258 259 260 260 261 262 262 262 263 265 267 268 270 271 272 274 275 276 276 277 277 277 274 270 268 268 268 268 266 265 265 265 266 266 265 265 264 265 265 266 267 269 269 270 270 271 271 271 271 271 271 270 270 270 271 271 271 270 270 270 270 269 269
228 230 231 233 237 241 243 244 245 247 248 249 251 253 255 254 254 255 255 256 256 258 260 260 260 259 260 260 261 262 263 265 267 269 271 272 273 274 275 275 276 276 275 273 271 269 268 268 268 268 267 266 266 266 266 266 266 266 266 267 267 267 268 268 269 269 270 270 271 271 272 272 272 272 271 271 271 272 271 270 270 270 270 270 270
200 222 229 232 236 240 243 245 245 247 249 250 251 253 255 255 256 256 257 257 258 259 260 260 260 260 260 261 262 264 265 267 268 270 271 273 274 275 276 276 276 276 275 273 272 270 270 269 268 268 268 268 268 268 267 267 267 267 267 267 268 268 269 269 269 270 270 270 271 271 272 272 272 272 272 272 272 272 272 271 271 271 271 271 271
75 93 165 215 228 236 241 244 246 247 249 250 251 252 254 256 257 258 258 259 260 260 260 261 262 263 263 264 265 266 267 268 270 271 272 274 275 275 275 275 275 274 274 273 272 271 270 269 269 269 269 270 270 270 270 270 269 269 270 270 270 271 271 271 272 272 272 272 272 272 272 272 272 273 273 273 273 272 272 272 272 272 272 272 271
63 68 77 94 150 206 228 239 244 247 249 250 251 252 254 255 257 258 259 260 261 262 262 262 263 264 265 266 267 267 268 269 271 272 272 273 274 273 273 273 273 273 273 272 272 271 270 270 270 270 270 271 271 271 272 272 272 272 272 273 274 274 274 274 274 274 274 274 274 274 273 273 273 273 273 273 273 273 272 273 273 272 272 272 272
50 53 58 65 78 96 126 201 238 246 250 252 251 252 254 255 256 257 257 258 258 260 261 262 263 264 265 266 267 267 268 269 270 271 271 271 271 271 271 271 272 272 272 271 271 270 269 270 270 270 270 270 271 271 272 272 273 273 273 274 274 275 275 275 275 275 275 275 275 275 274 274 275 275 275 275 274 274 274 274 274 273 273 272 272
34 37 40 44 53 66 80 87 89 256 257 258 258 259 260 261 261 261 259 259 258 258 259 260 261 262 263 263 264 266 267 268 269 269 270 270 270 270 270 271 271 272 272 271 271 270 270 270 270 270 270 271 271 272 273 273 273 273 273 274 274 274 275 275 275 275 275 275 275 275 275 276 276 276 276 276 276 276 277 276 275 274 274 273 272
18 17 20 24 30 35 44 54 52 16 293 276 275 274 272 271 271 269 267 266 264 262 261 261 261 261 262 262 263 264 266 267 267 268 269 269 269 270 271 271 272 273 273 273 273 273 273 273 272 272 272 272 272 272 272 273 273 274 274 274 274 274 275 275 276 276 276 276 276 276 276 277 277 277 277 277 277 277 277 277 276 275 274 274 273
16 10 6 6 9 14 15 17 16 3 335 305 292 287 284 281 278 277 277 274 272 270 266 264 262 261 262 262 263 264 264 264 265 266 267 268 269 270 271 272 273 274 276 276 277 277 276 275 275 274 274 273 273 273 273 273 274 274 275 275 275 275 275 275 276 277 278 278 278 278 278 278 278 278 278 278 277 277 276 276 276 276 276 275 275
19 14 8 360 354 355 356 358 357 353 345 331 315 301 291 285 283 283 284 283 283 280 275 269 264 261 260 260 261 262 262 263 264 265 266 267 269 270 271 273 274 276 276 277 277 276 276 275 275 275 275 275 275 274 274 274 274 275 275 275 274 275 275 277 278 279 279 279 278 278 278 278 278 278 278 278 278 279 278 276 275 275 275 275 275
16 15 12 7 357 347 340 337 338 338 338 334 327 319 307 296 288 284 284 287 289 287 282 276 270 265 261 259 258 259 260 262 263 265 265 267 269 271 272 273 275 275 275 275 275 276 276 276 276 276 276 276 275 275 275 275 275 275 275 275 275 277 278 279 280 280 279 278 278 278 279 279 280 280 280 280 280 279 277 275 273 271 272 273 274
11 10 9 8 5 356 345 335 327 322 322 322 321 321 318 312 304 295 289 287 289 291 290 285 278 272 267 263 259 257 257 258 259 262 264 266 268 270 272 273 274 275 275 276 277 277 277 277 277 277 277 276 276 276 276 276 276 276 277 278 279 280 280 280 280 279 278 278 278 279 280 281 282 282 282 281 280 278 275 273 272 270 269 270 271
5 4 3 3 2 0 355 347 336 326 318 313 310 311 313 316 314 310 304 295 291 291 293 293 289 281 275 270 266 263 261 260 260 262 265 267 269 271 273 275 277 278 279 280 280 280 279 279 279 279 279 279 280 280 280 279 279 279 280 280 281 280 280 279 279 279 279 280 281 282 283 283 284 284 283 281 280 278 275 273 272 271 270 269 269
358 358 357 357 356 355 354 352 347 339 330 320 311 304 302 304 308 311 309 305 300 294 290 290 290 287 284 279 276 274 270 267 267 269 271 274 277 280 281 283 283 283 283 284 284 284 283 282 281 281 281 282 282 282 281 281 280 280 280 280 280 280 280 280 280 281 282 283 284 285 285 285 285 284 283 282 280 278 276 274 273 272 271 271 270
357 354 351 350 349 349 348 348 346 343 339 334 324 313 303 297 296 298 301 303 304 300 292 285 283 283 284 284 281 275 271 270 274 280 285 288 289 290 291 291 290 289 289 290 290 288 286 284 283 282 282 282 282 281 281 281 281 281 281 281 281 282 282 283 284 285 285 286 286 286 286 286 286 284 283 281 280 279 279 278 276 275 274 274 273
359 354 350 347 344 343 342 341 341 340 338 336 333 327 316 305 295 290 290 292 296 298 295 290 284 280 280 281 278 272 270 276 288 296 298 298 295 293 293 293 292 291 293 296 295 292 289 287 285 285 284 283 283 283 283 283 283 283 283 283 284 285 286 286 287 287 287 288 288 288 287 286 285 284 283 282 282 282 282 281 281 281 280 279 278
3 357 350 346 342 340 338 336 335 335 334 333 332 330 326 318 307 296 288 285 285 287 290 290 288 285 281 276 272 270 272 281 291 290 290 289 288 288 289 288 289 291 295 297 297 295 292 289 288 288 287 286 286 286 286 286 285 285 285 286 288 288 288 288 289 289 289 289 289 288 286 285 283 283 284 285 286 287 288 288 288 287 285 283 281
4 360 353 346 342 338 336 333 331 330 329 328 328 327 325 323 318 309 298 288 282 280 282 286 288 289 285 276 271 273 274 269 264 267 273 277 279 281 282 283 285 290 294 296 298 298 295 292 291 290 289 289 289 288 288 287 286 287 288 290 290 290 290 291 291 291 291 290 288 286 284 282 282 283 285 288 291 293 295 295 294 292 289 286 284
4 0 354 347 341 337 333 331 328 326 325 323 322 322 322 321 320 316 310 301 290 282 278 280 283 285 283 277 275 278 275 265 257 258 264 270 274 275 277 280 284 288 292 296 299 300 298 295 294 293 293 292 292 291 289 288 289 290 292 293 292 293 293 293 293 292 292 290 287 284 282 280 280 282 285 289 293 295 295 295 294 292 289 287 284
4 1 355 348 341 335 330 328 325 323 321 319 318 317 317 318 318 316 314 310 304 295 286 279 277 278 278 278 280 284 279 269 264 262 262 265 268 272 276 280 285 288 293 298 303 303 301 299 297 297 297 296 294 293 291 291 292 293 295 295 295 296 296 296 294 293 292 289 285 282 279 278 278 280 285 290 292 292 292 290 288 286 285 284 282
3 0 356 351 345 338 331 326 323 320 318 316 315 314 313 312 313 313 312 310 308 305 298 287 278 275 275 276 279 282 280 274 268 266 265 267 269 273 278 283 286 290 296 302 306 306 304 302 301 302 301 298 296 294 293 293 294 295 297 297 298 298 298 297 295 293 291 288 283 280 278 277 278 281 285 289 291 291 291 288 286 283 281 278 276
2 359 357 353 348 343 336 328 322 317 314 313 312 311 310 309 309 309 309 309 308 307 305 298 287 278 274 274 275 277 278 277 274 271 272 274 276 281 286 288 291 295 299 304 307 308 307 306 306 305 302 298 296 294 294 294 296 297 298 299 300 301 300 298 295 294 292 287 282 279 278 279 279 281 285 290 292 292 291 290 289 285 278 274 273
0 358 356 353 349 344 340 334 326 319 313 310 308 307 306 305 305 306 307 306 305 305 304 302 296 287 279 275 274 274 275 276 277 277 276 278 283 290 294 295 296 298 301 305 307 309 309 310 309 308 304 299 296 295 294 295 296 298 300 301 303 303 301 298 296 295 292 286 281 280 279 277 277 280 287 293 297 298 297 294 287 280 277 276 275
359 357 355 352 349 345 342 337 332 325 317 311 307 304 301 300 300 301 303 302 302 302 303 301 298 295 288 282 277 274 273 273 275 277 275 277 284 291 294 296 297 297 300 303 306 308 311 312 311 309 306 302 298 296 295 296 297 299 301 304 305 304 302 299 298 297 293 287 282 279 276 273 272 279 294 302 307 303 296 288 282 280 283 278 267
358 357 355 353 350 347 343 339 335 329 323 317 310 302 298 297 295 294 295 296 296 298 299 298 297 296 293 288 282 276 272 270 271 274 275 277 282 288 291 293 294 295 298 300 303 307 311 312 311 309 307 305 301 298 298 298 299 300 303 306 306 305 304 302 300 299 294 287 281 275 268 263 261 270 308 316 302 288 277 274 274 272 262 234 160
355 354 354 353 351 348 345 341 338 332 325 319 312 305 301 299 296 292 289 288 291 297 298 295 293 294 292 290 288 283 276 272 269 271 274 277 280 284 287 289 289 292 295 297 300 304 309 311 311 310 308 307 304 301 299 299 299 300 303 307 307 306 305 303 301 300 293 284 275 265 255 242 210 144 131 141 172 225 232 232 227 197 153 126 107
351 351 351 350 350 348 346 343 340 336 330 322 314 308 303 296 291 290 288 284 283 285 286 284 286 290 289 289 288 285 281 280 275 271 271 273 278 281 283 284 286 290 293 295 297 301 305 309 310 310 310 310 307 304 301 300 300 300 304 308 309 307 305 302 300 298 290 279 265 254 239 210 164 140 138 150 166 176 172 160 142 122 110 102 94
346 347 347 348 347 347 345 344 341 339 334 326 317 310 304 293 284 283 284 282 279 276 275 277 281 283 285 287 287 286 284 285 282 277 273 271 274 277 280 282 285 288 290 292 293 295 300 306 309 310 312 312 310 307 303 302 301 300 304 309 310 307 303 299 296 291 283 272 258 244 221 185 155 144 147 157 157 147 136 126 117 109 103 97 92
344 344 345 345 345 345 344 343 341 339 336 331 322 313 305 294 284 279 276 275 273 272 272 275 277 278 278 281 284 287 287 286 284 281 277 272 270 272 276 280 283 285 286 287 287 288 295 301 305 308 311 313 312 310 306 304 302 301 303 309 310 307 301 296 291 283 275 264 248 232 208 175 155 151 155 152 141 128 121 118 114 110 105 99 93
341 342 342 343 343 343 342 341 340 338 336 332 326 317 308 297 286 279 274 272 269 265 263 265 269 273 273 272 275 279 282 286 287 285 280 274 269 269 274 280 281 281 282 283 282 282 288 295 300 304 308 311 311 310 308 305 303 301 301 306 309 307 299 291 285 277 266 247 235 226 202 172 159 157 153 144 132 125 123 120 115 109 103 94 84
339 339 340 340 341 341 341 340 338 337 334 331 327 321 312 301 290 280 274 271 269 265 261 259 260 263 265 266 267 267 269 273 278 277 276 277 277 274 273 274 275 276 278 279 280 279 278 285 294 300 302 305 308 308 308 307 304 301 299 302 307 306 298 289 280 269 250 229 230 226 200 172 166 162 153 142 136 134 132 126 118 109 98 87 78
338 337 338 338 338 339 338 338 336 334 332 330 326 322 314 305 295 284 274 269 266 265 262 259 257 258 260 262 262 261 262 263 264 265 266 271 276 273 264 259 261 266 270 272 276 277 274 275 284 292 295 298 301 303 305 306 304 300 297 297 301 304 297 286 274 259 233 214 224 221 191 175 175 168 158 150 146 145 140 131 122 111 96 84 74
336 336 336 336 336 336 336 335 334 332 330 327 324 320 315 307 298 288 278 271 265 262 260 258 255 255 256 257 258 259 258 258 260 263 263 261 261 260 258 254 254 256 259 262 267 272 273 272 274 280 286 289 292 296 300 303 303 300 296 293 294 298 296 287 272 254 224 200 207 207 189 183 185 178 169 164 159 156 150 139 128 114 94 71 55
334 334 334 335 335 334 334 333 332 330 328 325 322 318 314 307 299 290 281 275 269 263 259 256 254 252 252 253 254 256 256 255 255 259 260 258 256 256 256 256 254 252 252 256 261 266 269 269 269 272 278 282 285 288 292 295 298 297 294 290 288 289 290 283 270 253 225 194 188 196 194 194 195 191 185 181 174 170 162 144 128 108 80 43 18
333 333 333 333 333 333 332 331 330 328 326 323 320 316 312 306 299 291 283 276 271 266 262 256 252 250 249 250 250 252 254 254 252 253 254 255 255 255 256 255 254 254 253 253 256 260 264 266 266 268 271 275 278 281 283 286 291 293 292 288 284 281 279 274 264 252 230 197 183 189 195 200 205 206 206 202 197 191 176 145 89 22 1 355 345
332 332 332 332 331 331 330 329 328 326 323 321 318 314 310 305 299 292 284 277 271 267 263 259 253 248 246 247 248 248 250 251 251 250 250 250 251 252 254 255 256 256 255 253 252 255 259 263 264 264 265 268 271 274 276 279 284 288 289 287 282 277 271 264 254 246 233 206 186 186 191 199 206 214 220 226 233 241 245 283 316 320 316 314 316
331 331 331 331 330 330 329 327 326 323 321 318 315 312 308 303 298 291 284 278 272 266 262 260 256 250 246 244 245 246 246 248 249 249 249 248 248 248 249 251 253 254 254 253 251 250 253 257 260 260 259 260 263 267 270 272 276 280 284 285 281 276 269 261 250 241 234 220 200 188 187 193 199 210 223 237 256 265 274 287 296 298 296 298 301
330 330 330 330 329 329 328 326 324 322 319 316 313 310 306 302 297 291 284 278 272 267 262 259 256 252 247 244 242 242 243 245 246 248 248 248 247 245 245 246 248 249 250 251 250 248 247 250 254 255 253 252 255 259 263 266 269 271 275 277 277 275 269 262 252 243 237 234 223 208 200 200 203 213 228 242 254 263 269 278 286 289 288 285 287
329 329 329 329 328 327 326 325 323 320 318 315 312 308 305 301 296 291 285 279 273 267 263 259 256 252 248 244 242 241 240 241 244 245 247 247 246 245 243 243 244 245 247 249 250 249 246 246 248 251 250 247 248 252 256 260 262 264 265 267 269 270 267 262 256 248 242 240 238 232 224 223 224 227 235 244 252 257 264 271 277 280 280 278 277
329 328 328 328 327 326 325 323 321 319 316 314 311 307 303 299 295 289 285 279 274 269 264 260 256 252 249 245 243 240 239 239 240 242 244 245 245 244 242 241 241 241 242 244 246 247 246 245 245 246 245 242 243 247 249 251 254 258 260 260 260 261 262 262 258 252 247 244 243 242 240 239 240 243 246 249 252 256 263 268 269 270 271 271 272
328 328 327 327 326 325 324 322 320 318 315 312 309 306 302 298 294 289 284 279 274 270 266 262 258 254 250 246 243 241 239 238 238 238 240 242 243 242 241 240 239 238 238 239 241 244 245 244 244 244 242 239 238 242 244 244 245 249 253 255 254 255 258 260 259 256 253 250 246 243 242 242 245 249 252 255 255 257 260 264 264 264 264 262 264
327 327 326 325 325 324 322 321 319 316 313 310 307 304 300 297 293 289 285 280 275 270 266 263 260 257 253 249 245 242 240 238 237 237 237 238 240 240 239 239 238 237 236 236 237 239 241 241 241 242 241 237 235 237 241 241 238 238 244 250 251 250 250 252 254 255 256 255 251 246 243 241 243 247 251 255 256 256 257 259 261 262 260 260 261
326 326 325 325 324 323 322 320 318 315 312 309 305 302 300 297 293 289 285 281 276 271 267 263 261 259 256 253 249 246 242 239 237 237 237 237 237 238 238 238 237 237 235 235 235 235 236 238 239 240 240 238 235 234 238 240 237 233 239 247 249 247 244 247 249 251 252 252 252 250 246 243 242 244 247 250 251 251 253 255 256 257 256 257 260
326 326 326 325 325 323 322 320 317 314 311 308 306 303 300 297 293 290 286 282 278 274 269 265 261 259 258 256 253 250 247 242 238 236 236 236 237 237 237 237 236 236 234 233 233 234 234 235 237 238 238 238 236 233 234 239 239 233 234 241 246 244 242 244 246 249 248 246 246 247 248 246 244 243 243 244 245 245 247 249 250 251 252 253 256
Height
10678 10680 10682 10683 10685 10686 10688 10690 10691 10692 10693 10694 10696 10697 10698 10699 10701 10702 10704 10705 10705 10706 10707 10707 10708 10709 10710 10710 10711 10711 10711 10711 10711 10710 10710 10710 10709 10709 10709 10709 10709 10709 10709 10709 10709 10709 10709 10709 10709 10709 10709 10709 10709 10709 10709 10709 10709 10709 10709 10709 10709 10708 10707 10705 10705 10705 10704 10704 10704 10705 10705 10705 10704 10704 10703 10703 10703 10703 10703 10703 10702 10702 10701 10700 10699
10677 10679 10681 10682 10684 10685 10687 10688 10689 10690 10691 10692 10694 10695 10696 10697 10698 10700 10701 10702 10703 10703 10704 10704 10705 10706 10706 10707 10707 10707 10707 10707 10707 10707 10706 10706 10706 10706 10706 10706 10706 10706 10705 10705 10705 10705 10705 10705 10705 10704 10704 10704 10703 10703 10703 10703 10703 10703 10703 10703 10703 10703 10701 10700 10699 10699 10698 10698 10698 10698 10699 10699 10698 10698 10697 10696 10696 10696 10696 10696 10695 10694 10693 10692 10691
10677 10678 10680 10681 10683 10684 10685 10687 10688 10689 10689 10691 10692 10693 10694 10695 10696 10697 10698 10698 10699 10699 10700 10701 10701 10702 10703 10703 10703 10703 10703 10703 10703 10703 10702 10702 10702 10702 10702 10702 10702 10702 10702 10701 10701 10701 10701 10700 10700 10699 10699 10699 10698 10698 10697 10697 10698 10698 10698 10697 10697 10697 10696 10694 10693 10693 10692 10692 10692 10692 10692 10692 10692 10691 10690 10689 10689 10689 10689 10688 10687 10686 10685 10684 10684
10676 10677 10679 10680 10681 10683 10684 10685 10686 10687 10687 10688 10690 10691 10692 10692 10693 10694 10695 10695 10695 10696 10696 10697 10698 10698 10699 10699 10699 10699 10699 10699 10699 10699 10699 10699 10699 10698 10698 10698 10698 10698 10698 10697 10697 10697 10696 10695 10695 10694 10694 10693 10692 10692 10692 10692 10692 10692 10692 10692 10692 10691 10690 10689 10688 10687 10686 10686 10685 10685 10686 10686 10686 10684 10684 10683 10683 10682 10681 10680 10679 10678 10677 10676 10676
10675 10676 10678 10679 10680 10681 10683 10684 10685 10685 10685 10686 10687 10688 10688 10689 10690 10691 10691 10692 10692 10692 10693 10693 10694 10694 10694 10695 10695 10695 10695 10695 10695 10695 10695 10695 10695 10694 10694 10694 10693 10693 10693 10693 10692 10692 10691 10691 10690 10689 10688 10688 10687 10686 10686 10686 10686 10686 10686 10686 10686 10685 10684 10683 10682 10681 10681 10680 10679 10679 10679 10680 10680 10678 10676 10676 10676 10675 10674 10673 10672 10670 10669 10669 10669
10674 10675 10677 10678 10679 10680 10681 10682 10683 10683 10683 10684 10684 10685 10685 10686 10686 10687 10687 10688 10688 10688 10689 10689 10690 10690 10690 10691 10691 10691 10690 10690 10691 10691 10691 10691 10690 10690 10689 10689 10689 10688 10688 10688 10687 10687 10686 10686 10685 10684 10683 10682 10681 10681 10680 10680 10680 10679 10679 10679 10678 10678 10677 10676 10675 10675 10674 10674 10673 10672 10672 10672 10673 10671 10668 10668 10668 10667 10666 10664 10663 10662 10661 10661 10662
10673 10674 10676 10676 10677 10678 10679 10680 10680 10680 10681 10681 10681 10682 10683 10683 10683 10684 10684 10684 10684 10684 10685 10685 10686 10686 10686 10686 10686 10686 10686 10686 10686 10686 10686 10686 10686 10685 10685 10684 10684 10684 10683 10683 10682 10682 10681 10680 10679 10678 10677 10676 10676 10675 10675 10674 10674 10673 10672 10672 10671 10671 10670 10669 10669 10668 10667 10666 10666 10665 10665 10665 10664 10663 10662 10661 10660 10659 10658 10655 10653 10653 10653 10653 10652
10671 10673 10674 10675 10675 10676 10676 10677 10677 10677 10678 10678 10678 10678 10679 10680 10680 10680 10681 10681 10680 10680 10681 10681 10682 10682 10682 10682 10682 10682 10682 10682 10682 10682 10681 10681 10681 10681 10681 10680 10679 10679 10678 10677 10677 10676 10676 10675 10674 10673 10672 10671 10670 10670 10669 10668 10668 10667 10667 10666 10665 10664 10664 10663 10662 10661 10661 10660 10658 10657 10657 10657 10655 10655 10655 10654 10653 10652 10649 10646 10644 10644 10644 10643 10642
10667 10669 10671 10672 10672 10672 10673 10674 10674 10674 10674 10674 10675 10675 10675 10676 10676 10677 10677 10677 10676 10676 10677 10677 10677 10677 10677 10677 10677 10677 10677 10677 10677 10676 10676 10676 10676 10676 10675 10675 10673 10673 10672 10672 10671 10670 10670 10669 10668 10667 10666 10665 10665 10664 10663 10662 10662 10661 10661 10660 10659 10658 10657 10656 10655 10654 10654 10652 10651 10650 10649 10648 10647 10646 10646 10646 10646 10644 10638 10636 10636 10635 10634 10633 10633
10664 10666 10667 10668 10669 10669 10669 10670 10671 10671 10670 10671 10671 10671 10671 10672 10672 10672 10672 10672 10672 10672 10673 10673 10673 10673 10672 10673 10673 10672 10672 10671 10671 10671 10671 10671 10670 10670 10669 10669 10667 10666 10666 10666 10665 10664 10664 10663 10662 10661 10660 10659 10658 10657 10656 10656 10655 10655 10654 10654 10653 10651 10650 10649 10648 10647 10646 10645 10644 10642 10641 10640 10638 10638 10637 10637 10638 10635 10627 10625 10626 10625 10624 10624 10623
10663 10663 10664 10665 10666 10666 10666 10666 10667 10667 10666 10666 10667 10667 10667 10667 10667 10667 10667 10667 10667 10667 10668 10668 10668 10668 10668 10668 10667 10667 10667 10666 10666 10665 10665 10665 10665 10664 10663 10662 10661 10660 10660 10660 10659 10658 10657 10656 10656 10655 10654 10653 10652 10651 10649 10649 10648 10648 10647 10646 10645 10644 10643 10642 10640 10639 10638 10636 10635 10634 10632 10631 10630 10629 10628 10627 10629 10625 10618 10617 10617 10616 10616 10614 10612
10662 10662 10663 10663 10663 10664 10664 10664 10663 10663 10663 10663 10663 10663 10663 10663 10663 10663 10662 10662 10661 10662 10662 10662 10662 10662 10662 10662 10662 10661 10661 10660 10660 10660 10660 10659 10659 10658 10657 10656 10655 10655 10654 10654 10653 10652 10651 10650 10650 10649 10648 10647 10646 10645 10643 10642 10642 10641 10640 10639 10638 10637 10635 10633 10632 10631 10629 10627 10626 10625 10623 10622 10621 10620 10619 10619 10618 10613 10610 10610 10608 10606 10606 10604 10602
10662 10661 10661 10662 10662 10662 10662 10661 10661 10660 10660 10659 10659 10659 10659 10659 10659 10658 10658 10657 10656 10656 10656 10656 10657 10657 10656 10656 10656 10655 10655 10655 10654 10654 10654 10653 10653 10652 10651 10650 10650 10649 10648 10648 10647 10646 10645 10645 10644 10643 10642 10641 10640 10639 10637 10636 10635 10634 10633 10632 10631 10629 10627 10625 10624 10623 10621 10619 10617 10616 10614 10613 10612 10611 10610 10609 10608 10604 10602 10601 10599 10597 10596 10594 10591
10662 10661 10661 10660 10660 10660 10660 10659 10658 10658 10657 10657 10656 10656 10656 10655 10655 10654 10653 10652 10651 10651 10650 10650 10651 10651 10651 10650 10650 10649 10649 10649 10649 10648 10648 10647 10647 10646 10646 10645 10644 10643 10643 10642 10641 10640 10640 10639 10638 10637 10636 10635 10633 10632 10630 10629 10627 10626 10625 10624 10623 10622 10620 10618 10616 10615 10613 10611 10609 10607 10606 10604 10604 10603 10602 10600 10599 10597 10594 10591 10589 10587 10585 10583 10581
10661 10661 10660 10659 10659 10659 10658 10657 10657 10656 10655 10654 10654 10653 10652 10652 10651 10651 10650 10649 10647 10646 10646 10645 10645 10645 10645 10644 10644 10644 10644 10644 10643 10643 10643 10642 10641 10641 10640 10639 10639 10638 10637 10636 10636 10635 10634 10633 10632 10631 10629 10628 10627 10625 10623 10621 10620 10619 10618 10617 10616 10614 10613 10611 10609 10607 10605 10603 10601 10599 10598 10597 10596 10595 10594 10592 10591 10590 10588 10584 10579 10577 10575 10573 10572
10660 10660 10659 10659 10658 10657 10657 10656 10655 10655 10654 10653 10652 10651 10650 10649 10649 10648 10647 10645 10644 10643 10642 10641 10640 10640 10639 10639 10639 10639 10639 10639 10638 10638 10638 10637 10637 10636 10635 10634 10633 10632 10632 10631 10630 10629 10628 10627 10625 10624 10622 10621 10620 10618 10617 10615 10613 10612 10611 10610 10608 10607 10606 10604 10602 10600 10598 10595 10593 10591 10589 10588 10588 10588 10586 10584 10583 10583 10582 10579 10574 10568 10566 10565 10565
10660 10659 10658 10657 10656 10655 10655 10654 10654 10653 10653 10652 10651 10650 10649 10648 10646 10645 10644 10643 10641 10640 10638 10637 10636 10635 10635 10635 10635 10634 10634 10634 10633 10633 10632 10632 10632 10631 10630 10630 10628 10627 10626 10625 10624 10623 10621 10620 10619 10617 10616 10614 10613 10611 10610 10609 10607 10606 10605 10603 10602 10600 10599 10597 10595 10592 10590 10588 10585 10583 10581 10580 10580 10580 10579 10577 10575 10575 10574 10572 10570 10565 10560 10559 10558
10660 10658 10657 10656 10654 10653 10653 10652 10652 10651 10651 10650 10649 10648 10647 10646 10644 10643 10642 10640 10639 10637 10635 10634 10632 10631 10631 10630 10630 10630 10629 10629 10628 10628 10627 10627 10627 10626 10626 10625 10623 10622 10621 10620 10618 10617 10616 10614 10613 10611 10610 10608 10607 10605 10604 10603 10601 10600 10598 10597 10595 10594 10592 10590 10587 10585 10583 10581 10578 10576 10574 10573 10573 10573 10572 10570 10569 10569 10567 10564 10564 10561 10557 10554 10552
10660 10658 10656 10655 10653 10652 10651 10650 10649 10648 10648 10647 10647 10646 10645 10643 10642 10640 10639 10637 10636 10634 10632 10631 10629 10628 10627 10626 10626 10625 10625 10624 10623 10623 10622 10622 10622 10621 10621 10620 10619 10617 10616 10615 10614 10613 10611 10610 10608 10606 10604 10602 10600 10600 10598 10597 10595 10593 10591 10590 10588 10587 10584 10582 10580 10578 10576 10574 10572 10570 10568 10567 10567 10566 10565 10564 10562 10562 10560 10557 10556 10555 10553 10551 10548
10660 10658 10656 10654 10652 10651 10649 10648 10647 10646 10645 10645 10644 10643 10642 10640 10639 10637 10636 10634 10633 10631 10630 10628 10626 10625 10623 10623 10622 10621 10620 10620 10619 10618 10618 10618 10618 10617 10617 10616 10615 10614 10613 10612 10610 10608 10606 10605 10603 10601 10598 10596 10595 10594 10592 10591 10589 10587 10585 10583 10582 10580 10578 10576 10573 10571 10570 10568 10566 10564 10562 10561 10560 10560 10558 10557 10556 10554 10553 10551 10549 10548 10547 10546 10544
10659 10657 10655 10653 10652 10650 10648 10647 10645 10644 10643 10642 10641 10640 10639 10638 10636 10635 10633 10632 10630 10629 10627 10625 10624 10622 10621 10620 10618 10617 10616 10615 10614 10615 10614 10614 10614 10614 10613 10613 10612 10611 10609 10608 10606 10604 10602 10599 10597 10595 10593 10592 10590 10588 10587 10585 10583 10581 10579 10577 10576 10574 10572 10570 10568 10566 10564 10562 10561 10559 10557 10555 10554 10553 10552 10551 10550 10548 10547 10546 10544 10543 10542 10541 10540
10659 10657 10655 10652 10651 10649 10647 10646 10644 10642 10641 10640 10639 10637 10636 10635 10634 10632 10631 10629 10628 10626 10624 10623 10621 10620 10619 10617 10616 10614 10611 10611 10611 10612 10612 10612 10611 10611 10610 10610 10609 10607 10606 10604 10603 10600 10597 10594 10592 10590 10589 10587 10585 10584 10582 10580 10578 10576 10574 10572 10570 10569 10567 10565 10563 10561 10559 10557 10555 10553 10552 10550 10549 10548 10547 10546 10544 10543 10542 10541 10539 10538 10537 10536 10535
10658 10656 10654 10652 10650 10648 10646 10644 10643 10641 10640 10638 10637 10635 10634 10632 10631 10630 10629 10627 10626 10625 10623 10621 10619 10618 10618 10616 10614 10610 10607 10609 10611 10611 10610 10609 10609 10608 10607 10607 10605 10603 10602 10600 10598 10596 10593 10590 10587 10586 10584 10582 10581 10579 10577 10575 10573 10572 10570 10568 10566 10564 10562 10561 10558 10556 10554 10552 10550 10549 10547 10546 10544 10543 10542 10541 10540 10539 10538 10537 10535 10534 10533 10532 10532
10657 10655 10653 10650 10648 10647 10645 10643 10641 10639 10638 10636 10635 10633 10632 10630 10629 10627 10626 10625 10624 10622 10620 10618 10617 10617 10616 10614 10611 10607 10607 10609 10611 10610 10608 10607 10606 10605 10604 10603 10601 10599 10598 10596 10594 10592 10588 10585 10583 10582 10580 10578 10576 10575 10573 10571 10569 10568 10566 10564 10562 10560 10558 10556 10554 10551 10549 10548 10546 10544 10543 10542 10540 10539 10538 10537 10536 10535 10534 10533 10532 10531 10530 10529 10528
10655 10653 10651 10649 10647 10645 10643 10641 10640 10638 10636 10634 10633 10631 10630 10628 10626 10625 10623 10622 10620 10619 10617 10616 10615 10615 10614 10611 10608 10607 10607 10608 10608 10607 10606 10604 10602 10601 10600 10599 10597 10595 10594 10592 10590 10587 10584 10582 10580 10578 10576 10574 10572 10571 10569 10567 10565 10564 10563 10561 10559 10557 10555 10552 10550 10547 10545 10544 10542 10541 10539 10538 10537 10536 10535 10534 10533 10532 10531 10530 10529 10528 10527 10526 10525
10654 10651 10649 10647 10644 10642 10640 10639 10637 10636 10634 10632 10631 10629 10627 10626 10624 10622 10620 10618 10617 10616 10615 10613 10612 10613 10612 10608 10606 10606 10606 10605 10605 10604 10603 10601 10599 10597 10597 10595 10593 10592 10591 10589 10587 10584 10581 10578 10576 10574 10572 10570 10569 10567 10566 10564 10562 10561 10559 10558 10556 10553 10551 10548 10545 10543 10541 10540 10538 10537 10536 10535 10534 10533 10533 10532 10531 10530 10529 10528 10527 10526 10525 10524 10523
10655 10652 10649 10646 10643 10640 10638 10636 10634 10633 10631 10630 10628 10627 10625 10623 10621 10619 10618 10616 10613 10612 10611 10611 10610 10609 10608 10605 10603 10604 10603 10602 10602 10601 10599 10597 10595 10594 10593 10592 10590 10589 10587 10585 10583 10580 10578 10575 10573 10570 10568 10567 10565 10564 10562 10561 10559 10558 10556 10555 10552 10550 10547 10544 10542 10540 10538 10537 10535 10534 10533 10532 10532 10531 10530 10530 10529 10528 10527 10526 10525 10524 10523 10523 10522
10655 10652 10649 10646 10642 10639 10636 10633 10631 10630 10628 10627 10625 10624 10622 10620 10619 10617 10615 10613 10611 10609 10608 10607 10606 10605 10604 10602 10601 10601 10600 10599 10598 10596 10594 10593 10591 10591 10590 10589 10587 10586 10584 10582 10580 10577 10575 10572 10570 10567 10565 10564 10562 10561 10560 10558 10557 10555 10553 10552 10549 10546 10544 10541 10539 10537 10535 10534 10533 10532 10531 10530 10530 10529 10528 10528 10527 10526 10525 10525 10524 10523 10523 10522 10521
10652 10649 10647 10644 10641 10638 10635 10632 10629 10627 10625 10624 10622 10621 10619 10617 10616 10615 10613 10611 10609 10607 10605 10604 10603 10602 10600 10599 10598 10597 10596 10595 10594 10592 10590 10589 10588 10588 10587 10586 10584 10582 10581 10579 10577 10574 10572 10569 10567 10564 10563 10561 10560 10558 10557 10555 10554 10552 10551 10549 10546 10543 10541 10538 10536 10534 10533 10531 10530 10530 10529 10528 10528 10527 10527 10526 10525 10525 10524 10524 10523 10523 10522 10521 10520
10650 10647 10645 10642 10639 10636 10633 10631 10628 10625 10623 10621 10620 10618 10617 10615 10613 10612 10611 10609 10607 10605 10603 10601 10600 10599 10597 10595 10594 10594 10593 10592 10590 10588 10587 10586 10585 10585 10584 10582 10581 10579 10578 10576 10574 10572 10569 10566 10564 10562 10560 10559 10557 10556 10554 10553 10551 10550 10548 10546 10543 10541 10538 10536 10533 10532 10530 10530 10529 10528 10528 10527 10526 10526 10525 10524 10524 10524 10524 10523 10523 10522 10522 10521 10520
10648 10645 10642 10640 10636 10632 10629 10627 10624 10622 10620 10619 10617 10616 10614 10612 10610 10609 10609 10606 10605 10603 10600 10598 10597 10596 10594 10592 10590 10590 10589 10588 10586 10585 10583 10582 10582 10581 10581 10579 10578 10576 10575 10573 10571 10569 10567 10564 10562 10560 10558 10557 10555 10553 10552 10550 10549 10547 10546 10543 10541 10538 10536 10533 10531 10530 10529 10528 10527 10527 10526 10525 10525 10524 10524 10523 10523 10523 10523 10523 10523 10522 10522 10521 10520
10646 10643 10640 10637 10634 10630 10627 10623 10621 10618 10616 10615 10614 10612 10610 10609 10607 10605 10605 10603 10602 10601 10598 10596 10594 10593 10591 10590 10587 10586 10584 10584 10583 10582 10581 10580 10579 10579 10578 10576 10575 10574 10572 10570 10568 10566 10564 10562 10560 10558 10556 10555 10553 10551 10550 10548 10546 10545 10543 10541 10538 10536 10533 10531 10529 10528 10527 10527 10526 10525 10525 10524 10524 10523 10523 10523 10523 10523 10523 10523 10522 10522 10522 10521 10521
10642 10640 10637 10634 10631 10628 10624 10621 10618 10615 10612 10610 10608 10607 10607 10607 10604 10601 10600 10599 10599 10598 10597 10594 10592 10590 10588 10587 10584 10582 10581 10580 10579 10579 10578 10577 10576 10576 10575 10573 10572 10571 10569 10568 10566 10564 10562 10560 10558 10556 10554 10553 10551 10549 10547 10546 10544 10543 10541 10539 10536 10534 10532 10529 10527 10526 10526 10525 10525 10524 10524 10523 10523 10522 10523 10523 10523 10523 10523 10523 10523 10522 10522 10521 10521
10638 10635 10632 10630 10627 10624 10621 10617 10614 10611 10608 10605 10603 10602 10602 10602 10600 10597 10595 10594 10594 10595 10594 10591 10589 10588 10586 10583 10581 10580 10578 10577 10576 10576 10575 10574 10574 10573 10571 10570 10569 10568 10567 10566 10564 10562 10560 10558 10556 10554 10552 10551 10549 10547 10545 10544 10542 10541 10539 10537 10535 10532 10530 10528 10526 10525 10524 10524 10524 10523 10523 10522 10522 10522 10522 10523 10523 10523 10523 10523 10523 10522 10522 10521 10521
10634 10630 10627 10624 10621 10618 10616 10613 10610 10607 10604 10600 10597 10596 10595 10594 10592 10591 10590 10589 10589 10590 10589 10587 10585 10585 10583 10580 10577 10576 10576 10575 10574 10573 10572 10571 10570 10569 10568 10567 10567 10565 10564 10563 10562 10560 10558 10556 10554 10552 10550 10549 10547 10546 10544 10542 10540 10539 10538 10535 10533 10531 10529 10527 10525 10524 10524 10523 10523 10523 10522 10522 10522 10522 10522 10523 10523 10523 10523 10523 10523 10523 10522 10522 10522
10628 10624 10621 10617 10614 10611 10609 10606 10603 10601 10598 10595 10592 10589 10588 10587 10584 10582 10582 10581 10581 10583 10583 10582 10581 10580 10580 10578 10576 10574 10573 10572 10570 10569 10568 10567 10566 10565 10565 10565 10564 10562 10561 10560 10559 10558 10556 10554 10552 10550 10548 10547 10546 10544 10542 10541 10539 10537 10536 10534 10532 10530 10528 10526 10524 10523 10523 10523 10522 10522 10522 10522 10522 10522 10522 10523 10523 10523 10523 10523 10523 10523 10523 10523 10523
10622 10619 10615 10612 10608 10604 10601 10597 10595 10592 10590 10588 10585 10582 10580 10579 10576 10574 10573 10572 10572 10573 10573 10574 10574 10575 10575 10575 10574 10572 10570 10569 10567 10565 10563 10562 10561 10561 10561 10561 10560 10559 10558 10556 10556 10556 10554 10552 10550 10549 10547 10545 10544 10543 10541 10539 10538 10536 10535 10533 10531 10529 10527 10525 10524 10523 10522 10522 10522 10522 10522 10521 10522 10522 10522 10523 10523 10523 10523 10523 10523 10523 10523 10523 10523
10618 10614 10610 10606 10603 10599 10595 10591 10588 10584 10582 10579 10578 10575 10573 10571 10569 10567 10565 10563 10563 10563 10563 10564 10566 10567 10568 10568 10569 10568 10567 10566 10564 10560 10558 10557 10558 10558 10558 10558 10556 10555 10554 10553 10552 10552 10552 10551 10549 10547 10546 10544 10543 10542 10540 10538 10536 10535 10533 10532 10530 10528 10527 10525 10523 10522 10522 10522 10522 10522 10521 10521 10522 10522 10522 10522 10523 10523 10523 10523 10523 10523 10523 10523 10522
10614 10610 10605 10601 10597 10594 10591 10587 10583 10579 10575 10572 10569 10566 10564 10562 10560 10558 10556 10555 10554 10553 10554 10555 10556 10557 10559 10560 10561 10561 10561 10561 10558 10554 10552 10554 10554 10553 10553 10552 10551 10551 10551 10549 10549 10548 10549 10548 10547 10546 10544 10543 10541 10540 10539 10537 10535 10534 10532 10531 10529 10528 10526 10525 10523 10522 10521 10521 10521 10521 10521 10521 10522 10522 10522 10522 10522 10523 10523 10523 10523 10523 10523 10522 10522
10609 10605 10601 10596 10592 10588 10585 10581 10577 10572 10568 10564 10561 10558 10555 10552 10550 10549 10547 10545 10545 10544 10544 10544 10545 10547 10549 10550 10552 10552 10553 10554 10552 10548 10548 10550 10548 10546 10545 10545 10545 10546 10546 10545 10544 10544 10544 10544 10544 10543 10542 10541 10540 10539 10537 10536 10534 10532 10531 10530 10529 10527 10526 10525 10523 10522 10521 10520 10521 10521 10521 10521 10522 10522 10522 10522 10522 10522 10523 10522 10522 10522 10522 10522 10522
10602 10598 10594 10590 10586 10581 10577 10574 10570 10565 10560 10556 10552 10549 10546 10543 10540 10539 10537 10535 10535 10534 10534 10534 10535 10536 10538 10539 10541 10542 10543 10544 10545 10543 10542 10543 10541 10538 10538 10538 10538 10539 10539 10540 10540 10540 10540 10540 10540 10540 10539 10538 10537 10536 10535 10534 10533 10531 10530 10529 10528 10527 10525 10524 10523 10522 10521 10520 10520 10520 10521 10521 10522 10522 10522 10522 10522 10522 10522 10522 10522 10522 10522 10522 10522
10596 10591 10587 10582 10578 10573 10569 10565 10561 10556 10552 10547 10543 10539 10535 10533 10530 10528 10526 10525 10524 10523 10523 10524 10525 10526 10527 10528 10530 10532 10533 10534 10536 10536 10536 10536 10534 10532 10531 10531 10531 10532 10533 10534 10534 10534 10534 10535 10535 10536 10536 10535 10534 10534 10533 10532 10531 10530 10529 10528 10527 10526 10525 10524 10523 10523 10521 10520 10519 10519 10520 10521 10521 10522 10522 10522 10522 10522 10522 10522 10522 10522 10522 10522 10521
10588 10583 10579 10574 10570 10565 10560 10556 10551 10546 10541 10537 10533 10529 10525 10522 10519 10517 10516 10514 10513 10513 10513 10513 10514 10515 10516 10517 10519 10521 10523 10524 10526 10527 10528 10529 10528 10527 10526 10525 10525 10527 10528 10528 10528 10529 10529 10529 10529 10531 10531 10531 10531 10530 10530 10530 10529 10528 10527 10526 10526 10525 10524 10524 10523 10523 10522 10520 10519 10519 10519 10520 10521 10521 10522 10522 10522 10522 10522 10522 10522 10521 10521 10521 10521
10580 10575 10569 10564 10559 10554 10550 10545 10540 10536 10531 10526 10522 10519 10515 10512 10509 10507 10505 10503 10502 10502 10501 10502 10502 10504 10505 10506 10508 10510 10512 10514 10516 10518 10519 10520 10521 10521 10520 10519 10519 10521 10522 10522 10522 10523 10523 10523 10524 10525 10526 10527 10527 10526 10526 10527 10527 10526 10526 10525 10524 10524 10523 10523 10522 10522 10521 10521 10520 10519 10519 10519 10520 10520 10521 10521 10521 10521 10521 10521 10521 10521 10521 10520 10520
10572 10566 10560 10555 10549 10543 10537 10532 10527 10523 10519 10515 10511 10507 10504 10501 10498 10495 10494 10492 10491 10490 10490 10490 10491 10492 10493 10495 10497 10499 10501 10504 10506 10508 10510 10511 10513 10514 10514 10513 10513 10514 10515 10515 10515 10516 10517 10517 10518 10519 10521 10522 10523 10522 10522 10523 10524 10524 10524 10523 10523 10522 10521 10521 10521 10521 10520 10520 10520 10519 10519 10518 10519 10519 10519 10520 10520 10520 10520 10520 10520 10520 10520 10520 10519
10565 10559 10552 10546 10541 10534 10527 10521 10515 10509 10505 10501 10498 10495 10492 10489 10486 10484 10482 10480 10479 10478 10478 10478 10478 10479 10481 10483 10485 10487 10490 10492 10495 10498 10500 10502 10504 10505 10506 10506 10507 10508 10509 10509 10509 10509 10510 10511 10512 10513 10515 10517 10518 10518 10519 10519 10520 10520 10521 10521 10520 10520 10519 10519 10519 10519 10518 10518 10518 10518 10518 10518 10518 10518 10518 10518 10518 10518 10518 10518 10519 10519 10519 10519 10518
10556 10550 10544 10537 10531 10524 10518 10511 10504 10497 10491 10487 10484 10481 10479 10477 10475 10472 10470 10468 10466 10466 10465 10465 10466 10467 10468 10470 10472 10475 10478 10480 10483 10486 10490 10492 10494 10495 10497 10498 10499 10501 10502 10503 10503 10503 10504 10505 10506 10507 10509 10511 10512 10513 10514 10515 10516 10517 10517 10517 10517 10517 10517 10517 10517 10517 10516 10516 10516 10516 10516 10517 10517 10517 10517 10516 10516 10516 10516 10516 10517 10517 10517 10517 10517
10547 10541 10534 10527 10520 10513 10506 10499 10492 10486 10480 10474 10470 10467 10464 10463 10461 10460 10458 10456 10454 10453 10452 10452 10453 10454 10455 10457 10459 10462 10465 10468 10471 10474 10478 10481 10483 10485 10487 10489 10490 10493 10494 10495 10496 10498 10499 10499 10500 10501 10503 10505 10506 10507 10509 10511 10512 10512 10513 10513 10514 10515 10515 10515 10515 10514 10514 10514 10514 10514 10514 10514 10515 10515 10515 10515 10515 10515 10515 10515 10515 10515 10515 10515 10515
10540 10533 10526 10520 10512 10504 10496 10488 10481 10475 10468 10463 10458 10453 10450 10448 10447 10445 10444 10442 10441 10440 10438 10438 10438 10440 10442 10443 10445 10448 10451 10455 10458 10461 10465 10469 10472 10474 10476 10479 10481 10483 10485 10487 10489 10491 10491 10492 10494 10495 10497 10499 10501 10503 10504 10505 10507 10508 10508 10508 10510 10512 10512 10512 10512 10512 10512 10512 10512 10512 10512 10512 10512 10512 10513 10513 10513 10513 10513 10513 10513 10513 10513 10513 10513
10531 10524 10516 10508 10501 10493 10486 10478 10470 10463 10457 10451 10446 10441 10437 10434 10432 10431 10429 10428 10427 10426 10425 10424 10424 10425 10427 10429 10431 10434 10438 10441 10445 10448 10452 10457 10460 10463 10465 10468 10470 10472 10475 10478 10481 10482 10483 10485 10486 10487 10490 10494 10497 10499 10499 10500 10503 10505 10505 10505 10506 10508 10509 10509 10509 10509 10509 10509 10509 10509 10509 10510 10510 10510 10510 10511 10511 10512 10512 10512 10512 10512 10512 10511 10511
10518 10511 10503 10494 10486 10478 10471 10464 10458 10451 10444 10439 10433 10429 10425 10422 10418 10416 10415 10414 10413 10413 10412 10412 10412 10412 10413 10415 10418 10421 10424 10428 10432 10436 10440 10444 10448 10451 10454 10457 10459 10462 10465 10469 10471 10473 10475 10477 10479 10480 10483 10487 10491 10494 10494 10496 10499 10502 10502 10501 10502 10504 10505 10505 10506 10506 10507 10507 10507 10507 10507 10507 10508 10508 10508 10509 10509 10510 10510 10510 10510 10511 10510 10510 10510